899  
ASUS41 KPHI 301412  
RWRPHI  
 
REGIONAL WEATHER ROUNDUP  
NATIONAL WEATHER SERVICE MOUNT HOLLY NJ  
1000 AM EDT SUN APR 30 2017  
 
NOTE: "FAIR" INDICATES FEW OR NO CLOUDS BELOW 12,000 FEET WITH NO  
SIGNIFICANT WEATHER AND/OR S TO VISIBILITY
.  
 
* = STATION DOES NOT REPORT PRECIPITATION (E.G. RAIN, SNOW, ETC.)  
OR FOG.
 
 
NJZ015>026-301500-  
SOUTHERN NEW JERSEY  
 
CITY SKY/WX TMP DP RH WIND PRES REMARKS
 
POMONA CLOUDY 65 43 44 NE16G24 30.22R  
WILDWOOD* CLOUDY 66 56 70 E14G23 30.19R  
MILLVILLE CLOUDY 68 56 65 E18 30.19S  
WRIGHTSTOWN PTSUNNY 64 43 46 E8 30.19S  
MOUNT HOLLY CLOUDY 64 42 44 E9 30.21S  
TRENTON CLOUDY 64 46 52 E10 30.21R  
 

 
NJZ001>014-301500-  
NORTHERN NEW JERSEY  
 
CITY SKY/WX TMP DP RH WIND PRES REMARKS
 
SUSSEX CLOUDY 56 40 55 NE7 30.23F  
ANDOVER* N/A 59 38 45 NE5 30.22F  
MORRISTOWN CLOUDY 61 41 48 NE6 30.24S  
NEWARK CLOUDY 62 38 40 E8 30.23S  
TETERBORO CLOUDY 59 38 45 E12 30.23F  
CALDWELL CLOUDY 59 39 47 E9 30.24S  
SOMERVILLE CLOUDY 63 42 46 CALM 30.21R  
ALLAIRE* CLOUDY 61 39 44 E16 30.24S  
TOMS RIVER* PTSUNNY 62 41 46 E8 30.24S  
 

 
PAZ043-044-047-054-055-060>062-066>071-301500-  
EASTERN PENNSYLVANIA  
 
CITY SKY/WX TMP DP RH WIND PRES REMARKS
 
PHILADELPHIA CLOUDY 67 52 58 E13G21 30.20F  
NORTH PHILA CLOUDY 67 49 52 SE14G31 30.23R  
BLUE BELL* CLOUDY 63 50 63 E10 30.21F  
DOYLESTOWN MOSUNNY 65 51 60 VRB3 30.20S  
QUAKERTOWN* MOSUNNY 64 48 55 SE13 30.20F  
PERKASIE* PTSUNNY 63 48 59 E8 30.21S  
POTTSTOWN PTSUNNY 64 48 56 E9 30.20F  
LANCASTER CLOUDY 64 52 64 E10 30.17F  
COATESVILLE PTSUNNY 66 48 52 E13 30.19F  
READING CLOUDY 65 47 52 SE6 30.17F  
ALLENTOWN CLOUDY 64 46 52 E7 30.19F  
MOUNT POCONO CLOUDY 53 40 61 E13G20 30.19F  
HAZLETON CLOUDY 59 41 51 SE10G20 30.22R  
LEHIGHTON CLOUDY 61 43 51 E5 30.19F  
WILKES BARRE CLOUDY 57 40 52 CALM 30.19R  
 

 
DEZALL-MDZ008-012-015-019-020-301500-  
DELAWARE AND EASTERN MARYLAND  
 
CITY SKY/WX TMP DP RH WIND PRES REMARKS
 
WILMINGTON CLOUDY 68 54 60 E12 30.19S  
DOVER MOSUNNY 68 66 91 E15 30.18S  
GEORGETOWN PTSUNNY 72 64 76 E6 30.17S  
EASTON MOSUNNY 75 64 69 E8 30.18S  
ABERDEEN CLOUDY 69 58 70 E7 30.17S  
PATUXENT PTSUNNY 79 73 82 SW12 30.14R  
OCEAN CITY MOSUNNY 71 66 84 VRB5 30.17S  
WALLOPS ISLAND SUNNY 79 71 76 W10G21 30.16S  
CAMBRIDGE SUNNY 81 72 74 VRB3G12 30.14S  
SALISBURY PTSUNNY 79 73 82 VRB6 30.15S  
 

 
PAZ001-021-NYZ056-072-MDZ011-DCZ001-301500-  
OTHER NEARBY LOCATIONS  
 
CITY SKY/WX TMP DP RH WIND PRES REMARKS
 
HARRISBURG CLOUDY 66 51 58 E10 30.16S  
STATE COLLEGE CLOUDY 57 52 82 CALM 30.17S  
WILLIAMSPORT CLOUDY 56 42 59 E8 30.18R  
BINGHAMTON TSTM 47 39 74 MISG 30.22F  
NEW YORK CITY PTSUNNY 59 38 45 E8G16 30.27S  
BALTIMORE CLOUDY 69 62 78 E10 30.15R  
WASHINGTON DC CLOUDY 75 69 81 NE7 30.13R  
 

 
 
 
CLICK HERE TO GO TO PREVIOUS BULLETINS.

The Nexlab PA Page
The Nexlab NJ Page
The Nexlab DE Page
The Nexlab MD Page Main Text Page